User: anonymous   Login
Location: Dürabuch
(48.2640°N, 11.2185°E)
Time: 12:54:10
(UTC+00:00)
Language:

NOSS 3-4 (A) - Orbit

View from above orbital plane
View from above orbital plane
View from above satellite
View from above satellite

Ground track
Ground track

The orbit data is extracted from the following two-line orbital elements,

1 31701U 07027A   24156.90563955 0.00000050  00000-0  55482-4 0    04
2 31701  63.3770  66.1711 0407134  21.2813 338.7187 13.40920435    06
Epoch (UTC): 04 June 2024 21:44:07
Eccentricity: 0.0407134
inclination: 63.3770°
perigee height: 801 km
apogee height: 1410 km
right ascension of ascending node: 66.1711°
argument of perigee: 21.2813°
revolutions per day: 13.40920435
mean anomaly at epoch: 338.7187°
orbit number at epoch: 0

The dashed part of the orbit path shows where the satellite is in the earth's shadow,  

DLR